CW9803 Weather Reports


time (UTC)temp
F
wind
direction
speed
knots
gust
knots
rain 1hr
in
rain 24hr
in
rain mn
in
humidity
%
barometer
mb
20260510233918 75 283 9.6 12.2 0.00 0.00 0.00 37 1010.8
20260510233415 76 167 5.2 7.8 0.00 0.00 0.00 37 1010.7
20260510232911 75 251 7.0 9.6 0.00 0.00 0.00 37 1010.9
20260510232408 75 267 10.4 13.9 0.00 0.00 0.00 37 1010.7
20260510231903 75 249 6.1 7.0 0.00 0.00 0.00 37 1010.8
20260510231401 76 247 5.2 7.8 0.00 0.00 0.00 36 1010.8
20260510230857 77 257 7.8 9.6 0.00 0.00 0.00 36 1010.8
20260510230352 76 333 11.3 13.9 0.00 0.00 0.00 39 1010.8
20260510225850 77 281 7.0 11.3 0.00 0.00 0.00 37 1010.6
20260510225345 79 252 9.6 14.8 0.00 0.00 0.00 35 1010.6
20260510224841 78 228 2.6 3.5 0.00 0.00 0.00 36 1010.1
20260510224338 81 150 1.7 1.7 0.00 0.00 0.00 27 1010.5
20260510223835 81 153 2.6 3.5 0.00 0.00 0.00 26 1010.3
20260510223332 81 192 2.6 3.5 0.00 0.00 0.00 25 1010.3
20260510222830 83 177 7.8 9.6 0.00 0.00 0.00 25 1010.5
20260510222327 82 133 1.7 1.7 0.00 0.00 0.00 26 1010.7
20260510221827 82 175 3.5 5.2 0.00 0.00 0.00 27 1010.4
20260510221324 84 197 5.2 7.0 0.00 0.00 0.00 26 1010.4
20260510220820 82 143 3.5 5.2 0.00 0.00 0.00 29 1010.5
20260510220316 83 159 1.7 1.7 0.00 0.00 0.00 27 1010.8
20260510215813 83 156 1.7 3.5 0.00 0.00 0.00 28 1010.7
20260510215310 82 252 2.6 3.5 0.00 0.00 0.00 27 1010.6
20260510214808 82 225 5.2 7.0 0.00 0.00 0.00 28 1010.9
20260510214304 81 296 5.2 6.1 0.00 0.00 0.00 28 1010.8
20260510213801 81 163 2.6 6.1 0.00 0.00 0.00 29 1010.6
20260510213258 80 174 1.7 1.7 0.00 0.00 0.00 30 1010.4
20260510212754 78 158 5.2 7.8 0.00 0.00 0.00 29 1010.4
20260510212252 78 191 5.2 7.0 0.00 0.00 0.00 31 1010.3
20260510211748 78 163 3.5 7.0 0.00 0.00 0.00 31 1010.3
20260510211243 78 139 6.1 8.7 0.00 0.00 0.00 30 1010.5
20260510210740 78 164 1.7 2.6 0.00 0.00 0.00 30 1010.8
20260510210235 77 177 10.4 12.2 0.00 0.00 0.00 29 1010.7
20260510205735 78 181 7.0 12.2 0.00 0.00 0.00 29 1011.1
20260510205230 78 170 4.3 6.1 0.00 0.00 0.00 30 1011.0
20260510204727 78 155 2.6 2.6 0.00 0.00 0.00 30 1011.1
20260510204223 78 161 7.0 11.3 0.00 0.00 0.00 30 1011.1
20260510203720 78 179 7.0 8.7 0.00 0.00 0.00 29 1010.9
20260510203217 79 188 4.3 6.1 0.00 0.00 0.00 29 1010.9
20260510202712 80 154 3.5 3.5 0.00 0.00 0.00 28 1011.0
20260510202207 80 206 2.6 5.2 0.00 0.00 0.00 29 1011.2
20260510201705 80 164 10.4 13.0 0.00 0.00 0.00 28 1011.0
20260510201201 80 144 2.6 5.2 0.00 0.00 0.00 30 1011.1
20260510200657 79 172 7.0 8.7 0.00 0.00 0.00 30 1011.2
20260510200155 79 173 4.3 6.1 0.00 0.00 0.00 30 1011.1
20260510195652 79 221 1.7 3.5 0.00 0.00 0.00 30 1011.2
20260510195149 79 225 3.5 3.5 0.00 0.00 0.00 29 1011.1
20260510194648 79 144 2.6 6.1 0.00 0.00 0.00 31 1011.2
20260510194145 78 151 1.7 2.6 0.00 0.00 0.00 31 1011.1
20260510193640 78 187 6.1 9.6 0.00 0.00 0.00 30 1011.4
20260510193136 78 173 6.1 7.8 0.00 0.00 0.00 31 1011.6
20260510192631 78 146 2.6 7.0 0.00 0.00 0.00 31 1011.4
20260510192127 77 151 5.2 7.0 0.00 0.00 0.00 33 1011.7
20260510191624 79 136 5.2 7.0 0.00 0.00 0.00 32 1011.8
20260510191120 78 174 2.6 2.6 0.00 0.00 0.00 33 1011.6
20260510190617 78 150 1.7 2.6 0.00 0.00 0.00 35 1012.0
20260510190115 77 143 0.0 0.9 0.00 0.00 0.00 37 1012.0
20260510185611 76 255 4.3 6.1 0.00 0.00 0.00 35 1012.2
20260510185109 77 177 1.7 6.1 0.00 0.00 0.00 37 1012.3
20260510184606 75 111 0.0 0.9 0.00 0.00 0.00 39 1012.0
20260510184101 76 143 0.0 0.0 0.00 0.00 0.00 38 1012.3
20260510183556 75 194 0.9 0.9 0.00 0.00 0.00 38 1012.4
20260510183052 75 127 0.9 0.9 0.00 0.00 0.00 38 1012.5
20260510182549 74 117 0.0 0.0 0.00 0.00 0.00 39 1012.6
20260510182044 73 236 2.6 2.6 0.00 0.00 0.00 39 1012.7
20260510181543 73 235 1.7 2.6 0.00 0.00 0.00 41 1012.7
20260510181038 72 110 0.9 0.9 0.00 0.00 0.00 41 1012.9
20260510180530 71 132 0.9 1.7 0.00 0.00 0.00 43 1012.7
20260510180028 71 142 0.9 1.7 0.00 0.00 0.00 45 1013.1
20260510175522 70 118 0.9 0.9 0.00 0.00 0.00 44 1013.0
20260510175019 71 102 1.7 1.7 0.00 0.00 0.00 42 1012.9
20260510174517 69 69 1.7 3.5 0.00 0.00 0.00 43 1013.2
20260510174014 69 124 0.9 1.7 0.00 0.00 0.00 45 1013.2
20260510173509 69 155 1.7 1.7 0.00 0.00 0.00 45 1013.2
20260510173006 68 132 0.9 1.7 0.00 0.00 0.00 47 1013.3
20260510172501 68 141 1.7 1.7 0.00 0.00 0.00 47 1013.3
20260510171958 67 123 0.0 0.0 0.00 0.00 0.00 47 1013.3
20260510171454 67 71 0.9 1.7 0.00 0.00 0.00 48 1013.1
20260510170950 66 103 0.9 0.9 0.00 0.00 0.00 49 1013.1
20260510170443 64 126 0.9 0.9 0.00 0.00 0.00 55 1013.3
20260510165938 65 120 0.9 0.9 0.00 0.00 0.00 54 1013.5
20260510165435 63 123 0.0 0.9 0.00 0.00 0.00 55 1013.3
20260510164931 64 192 0.9 1.7 0.00 0.00 0.00 54 1013.2
20260510164428 62 113 0.0 0.0 0.00 0.00 0.00 57 1013.4
20260510163923 64 97 0.9 1.7 0.00 0.00 0.00 52 1013.3
20260510163419 62 120 0.0 0.0 0.00 0.00 0.00 54 1013.4
20260510162914 62 125 0.0 0.0 0.00 0.00 0.00 53 1013.3
20260510162412 60 130 0.0 0.0 0.00 0.00 0.00 59 1013.5
20260510161907 59 116 0.0 0.0 0.00 0.00 0.00 60 1013.6
20260510161403 59 81 1.7 1.7 0.00 0.00 0.00 63 1013.9
20260510160859 59 131 0.0 0.0 0.00 0.00 0.00 61 1013.8
20260510160356 57 144 0.9 0.9 0.00 0.00 0.00 65 1014.0
20260510155850 58 155 0.0 0.0 0.00 0.00 0.00 63 1014.2
20260510155347 58 113 0.0 0.0 0.00 0.00 0.00 64 1014.2
20260510154843 57 102 0.9 1.7 0.00 0.00 0.00 63 1014.2
20260510154339 56 113 0.9 0.9 0.00 0.00 0.00 64 1014.3
20260510153834 57 134 0.0 0.0 0.00 0.00 0.00 64 1014.2
20260510153330 55 122 0.0 0.0 0.00 0.00 0.00 67 1014.5
20260510152827 54 102 0.9 0.9 0.00 0.00 0.00 69 1014.5
20260510152323 53 123 0.0 0.9 0.00 0.00 0.00 72 1014.5
20260510151820 52 142 0.9 0.9 0.00 0.00 0.00 73 1014.5
20260510151318 51 92 0.9 0.9 0.00 0.00 0.00 74 1014.6
20260510150808 51 93 0.9 0.9 0.00 0.00 0.00 75 1014.7
20260510150304 50 79 1.7 1.7 0.00 0.00 0.00 76 1014.7
20260510145759 49 97 0.9 0.9 0.00 0.00 0.00 78 1014.9
20260510145256 49 87 0.9 0.9 0.00 0.00 0.00 77 1014.7
20260510144753 49 100 0.9 0.9 0.00 0.00 0.00 79 1014.7
20260510144249 47 86 0.9 0.9 0.00 0.00 0.00 82 1014.5
20260510143744 47 63 0.0 0.0 0.00 0.00 0.00 81 1014.8
20260510143240 46 152 0.9 0.9 0.00 0.00 0.00 82 1014.8
20260510142737 46 116 0.0 0.0 0.00 0.00 0.00 81 1014.8
20260510142234 45 133 0.0 0.0 0.00 0.00 0.00 85 1014.9
20260510141731 44 143 0.0 0.0 0.00 0.00 0.00 87 1014.9
20260510141229 43 138 0.0 0.9 0.00 0.00 0.00 88 1014.7
20260510140726 42 175 0.0 0.9 0.00 0.00 0.00 88 1014.8
20260510140225 43 118 0.0 0.0 0.00 0.00 0.00 86 1014.7
20260510135714 42 128 0.0 0.0 0.00 0.00 0.00 87 1014.8
20260510135210 41 120 0.0 0.0 0.00 0.00 0.00 88 1014.9
20260510134708 40 134 0.0 0.0 0.00 0.00 0.00 90 1014.9
20260510134205 40 122 0.0 0.0 0.00 0.00 0.00 90 1015.0
20260510133700 41 120 0.0 0.0 0.00 0.00 0.00 90 1015.1
20260510133156 40 121 0.0 0.0 0.00 0.00 0.00 91 1015.0
20260510132652 40 115 0.0 0.0 0.00 0.00 0.00 91 1015.1
20260510132150 40 110 0.0 0.0 0.00 0.00 0.00 92 1015.1
20260510131648 39 139 0.0 0.0 0.00 0.00 0.00 92 1014.9
20260510131145 39 139 0.0 0.0 0.00 0.00 0.00 93 1015.1
20260510130641 39 127 0.0 0.0 0.00 0.00 0.00 93 1015.0
20260510130139 38 127 0.0 0.0 0.00 0.00 0.00 94 1014.9
20260510125635 38 147 0.0 0.0 0.00 0.00 0.00 94 1014.9
20260510125131 37 144 0.0 0.0 0.00 0.00 0.00 94 1015.0
20260510124628 37 131 0.0 0.0 0.00 0.00 0.00 94 1015.0
20260510124125 37 110 0.0 0.0 0.00 0.00 0.00 94 1014.9
20260510123620 37 123 0.0 0.0 0.00 0.00 0.00 94 1014.9
20260510123116 37 118 0.0 0.0 0.00 0.00 0.00 94 1015.0
20260510122613 37 123 0.0 0.0 0.00 0.00 0.00 94 1015.0
20260510122108 37 122 0.0 0.0 0.00 0.00 0.00 94 1014.9
20260510121606 37 122 0.0 0.0 0.00 0.00 0.00 94 1014.8
20260510121103 38 122 0.0 0.0 0.00 0.00 0.00 94 1015.0
20260510120601 37 140 0.0 0.0 0.00 0.00 0.00 93 1015.0
20260510120056 37 135 0.0 0.0 0.00 0.00 0.00 94 1015.2
20260510115553 38 115 0.0 0.0 0.00 0.00 0.00 94 1015.3
20260510115050 38 118 0.0 0.0 0.00 0.00 0.00 94 1015.0
20260510114546 38 114 0.0 0.0 0.00 0.00 0.00 94 1015.1
20260510114042 38 53 1.7 1.7 0.00 0.00 0.00 94 1015.2
20260510113537 39 139 0.0 0.0 0.00 0.00 0.00 94 1015.2
20260510113036 39 141 0.0 0.0 0.00 0.00 0.00 94 1015.2
20260510112532 39 140 0.0 0.0 0.00 0.00 0.00 94 1015.3
20260510112028 39 138 0.0 0.0 0.00 0.00 0.00 93 1015.2
20260510111525 39 138 0.0 0.0 0.00 0.00 0.00 93 1015.3
20260510111021 39 137 0.0 0.0 0.00 0.00 0.00 92 1015.3
20260510110517 39 137 0.0 0.0 0.00 0.00 0.00 92 1015.2
20260510110014 39 137 0.0 0.0 0.00 0.00 0.00 92 1015.3
20260510105509 39 138 0.0 0.0 0.00 0.00 0.00 92 1015.3
20260510105004 39 139 0.0 0.0 0.00 0.00 0.00 91 1015.5
20260510104501 39 120 0.0 0.0 0.00 0.00 0.00 92 1015.3
20260510103957 40 122 0.0 0.0 0.00 0.00 0.00 91 1015.1
20260510103455 40 122 0.0 0.0 0.00 0.00 0.00 91 1015.5
20260510102950 40 152 0.0 0.0 0.00 0.00 0.00 91 1015.5
20260510102446 40 152 0.0 0.0 0.00 0.00 0.00 91 1015.5
20260510101943 40 152 0.0 0.0 0.00 0.00 0.00 91 1015.5
20260510101441 41 158 0.0 0.0 0.00 0.00 0.00 92 1015.3
20260510100939 41 149 0.0 0.0 0.00 0.00 0.00 92 1015.3
20260510100435 41 117 0.0 0.0 0.00 0.00 0.00 92 1015.3
20260510095931 41 117 0.0 0.0 0.00 0.00 0.00 91 1015.6
20260510095427 41 117 0.0 0.0 0.00 0.00 0.00 90 1015.5
20260510094926 40 117 0.0 0.0 0.00 0.00 0.00 89 1015.3
20260510094421 41 117 0.0 0.0 0.00 0.00 0.00 89 1015.7
20260510093917 41 112 0.0 0.0 0.00 0.00 0.00 88 1015.6
20260510093413 41 111 0.0 0.0 0.00 0.00 0.00 89 1015.5
20260510092909 41 118 0.0 0.0 0.00 0.00 0.00 89 1015.8
20260510092407 41 137 0.0 0.0 0.00 0.00 0.00 89 1015.7
20260510091907 41 136 0.0 0.0 0.00 0.00 0.00 89 1015.8
20260510091404 42 136 0.0 0.0 0.00 0.00 0.00 89 1015.7
20260510090901 42 150 0.0 0.0 0.00 0.00 0.00 88 1015.6
20260510090357 42 152 0.0 0.0 0.00 0.00 0.00 89 1015.7
20260510085853 42 151 0.0 0.0 0.00 0.00 0.00 88 1015.7
20260510085348 42 132 0.0 0.0 0.00 0.00 0.00 88 1015.6
20260510084844 43 144 0.0 0.0 0.00 0.00 0.00 88 1015.7
20260510084341 43 157 0.9 0.9 0.00 0.00 0.00 87 1015.6
20260510083838 43 133 0.0 0.0 0.00 0.00 0.00 86 1015.6
20260510083334 43 134 0.0 0.0 0.00 0.00 0.00 85 1015.6
20260510082830 43 104 0.9 0.9 0.00 0.00 0.00 84 1015.5
20260510082327 43 125 0.0 0.0 0.00 0.00 0.00 85 1015.5
20260510081826 43 125 0.0 0.0 0.00 0.00 0.00 85 1015.8
20260510081322 44 126 0.0 0.0 0.00 0.00 0.00 84 1015.8
20260510080819 44 124 0.0 0.0 0.00 0.00 0.00 84 1015.5
20260510080313 44 126 0.0 0.0 0.00 0.00 0.00 86 1015.8
20260510075811 44 125 0.0 0.0 0.00 0.00 0.00 86 1015.8
20260510075308 44 125 0.0 0.0 0.00 0.00 0.00 86 1015.5
20260510074805 44 125 0.0 0.0 0.00 0.00 0.00 85 1015.6
20260510074302 44 125 0.0 0.0 0.00 0.00 0.00 83 1015.7
20260510073758 44 108 0.0 0.0 0.00 0.00 0.00 83 1015.5
20260510073254 44 113 0.0 0.0 0.00 0.00 0.00 82 1015.5
20260510072749 45 146 0.0 0.0 0.00 0.00 0.00 81 1015.7
20260510072246 45 142 0.0 0.0 0.00 0.00 0.00 81 1015.6
20260510071743 45 148 0.0 0.0 0.00 0.00 0.00 81 1015.7
20260510071239 45 147 0.0 0.0 0.00 0.00 0.00 81 1015.9
20260510070738 46 148 0.0 0.0 0.00 0.00 0.00 80 1015.6
20260510070235 46 147 0.0 0.0 0.00 0.00 0.00 80 1015.7
20260510065729 46 147 0.0 0.0 0.00 0.00 0.00 80 1015.6
20260510065226 46 148 0.0 0.0 0.00 0.00 0.00 80 1015.7
20260510064723 46 149 0.0 0.0 0.00 0.00 0.00 81 1015.6
20260510064221 47 149 0.0 0.0 0.00 0.00 0.00 81 1015.6
20260510063717 47 149 0.0 0.0 0.00 0.00 0.00 82 1015.6
20260510063213 48 149 0.0 0.0 0.00 0.00 0.00 81 1015.6
20260510062710 48 149 0.0 0.0 0.00 0.00 0.00 81 1015.7
20260510062206 48 149 0.0 0.0 0.00 0.00 0.00 81 1015.8
20260510061701 48 150 0.0 0.0 0.00 0.00 0.00 80 1015.7
20260510061159 48 150 0.0 0.0 0.00 0.00 0.00 81 1015.7
20260510060655 48 150 0.0 0.0 0.00 0.00 0.00 80 1015.7
20260510060151 48 155 0.0 0.0 0.00 0.00 0.00 81 1015.7
20260510055648 49 130 0.0 0.0 0.00 0.00 0.00 80 1015.6
20260510055146 50 150 0.0 0.0 0.00 0.00 0.00 77 1015.9
20260510054641 50 141 0.0 0.0 0.00 0.00 0.00 71 1015.7
20260510054137 51 142 0.0 0.0 0.00 0.00 0.00 66 1015.8
20260510053636 52 157 0.9 0.9 0.00 0.00 0.00 65 1015.8
20260510053133 52 74 1.7 1.7 0.00 0.00 0.00 65 1015.8
20260510052629 52 106 0.9 0.9 0.00 0.00 0.00 67 1015.7
20260510052126 52 82 1.7 1.7 0.00 0.00 0.00 67 1015.9
20260510051621 52 103 0.9 0.9 0.00 0.00 0.00 68 1015.6
20260510051118 52 130 0.0 0.0 0.00 0.00 0.00 68 1015.8
20260510050615 52 134 0.0 0.0 0.00 0.00 0.00 66 1015.9
20260510050112 53 131 0.0 0.0 0.00 0.00 0.00 65 1015.6
20260510045604 53 157 0.0 0.9 0.00 0.00 0.00 62 1016.0
20260510045100 54 137 0.0 0.9 0.00 0.00 0.00 61 1015.7
20260510044556 53 89 0.9 0.9 0.00 0.00 0.00 60 1015.8
20260510044054 54 70 0.9 1.7 0.00 0.00 0.00 62 1015.9
20260510043549 54 138 0.0 0.0 0.00 0.00 0.00 62 1015.9
20260510043045 55 128 0.0 0.0 0.00 0.00 0.00 62 1015.7
20260510042538 55 108 0.9 0.9 0.00 0.00 0.00 60 1015.7
20260510042034 55 120 0.0 0.0 0.00 0.00 0.00 61 1015.7
20260510041531 55 110 0.0 0.0 0.00 0.00 0.00 61 1015.6
20260510041028 56 151 0.0 0.9 0.00 0.00 0.00 60 1015.7
20260510040520 56 226 0.0 0.9 0.00 0.00 0.00 59 1015.7
20260510040015 57 124 0.0 0.0 0.00 0.00 0.00 59 1015.6
20260510035512 58 111 0.0 0.0 0.00 0.00 0.00 56 1015.1
20260510035011 57 242 0.0 0.9 0.00 0.00 0.00 58 1015.3
20260510034510 58 122 0.0 0.0 0.00 0.00 0.00 56 1015.3
20260510034006 59 121 0.0 0.0 0.00 0.00 0.00 55 1015.1
20260510033501 60 92 0.9 0.9 0.00 0.00 0.00 54 1015.1
20260510033000 60 113 0.0 0.0 0.00 0.00 0.00 51 1015.0
20260510032456 61 254 0.9 1.7 0.00 0.00 0.00 49 1014.9
20260510031951 61 163 0.0 0.0 0.00 0.00 0.00 50 1015.1
20260510031447 62 31 1.7 1.7 0.00 0.00 0.00 46 1015.0
20260510030943 62 149 0.9 0.9 0.00 0.00 0.00 50 1014.9
20260510030438 62 89 0.9 0.9 0.00 0.00 0.00 48 1014.9
20260510025936 62 92 0.9 0.9 0.00 0.00 0.00 49 1014.8
20260510025433 63 75 0.9 0.9 0.00 0.00 0.00 48 1014.7
20260510024931 63 81 0.9 0.9 0.00 0.00 0.00 46 1014.7
20260510024427 63 113 0.0 0.9 0.00 0.00 0.00 49 1014.6
20260510023923 63 116 0.0 0.0 0.00 0.00 0.00 52 1014.7
20260510023419 64 93 0.0 0.9 0.00 0.00 0.00 50 1014.7
20260510022917 66 102 0.0 0.0 0.00 0.00 0.00 48 1014.5
20260510022415 69 168 0.0 0.0 0.00 0.00 0.00 43 1014.6
20260510021915 70 231 0.9 0.9 0.00 0.00 0.00 36 1014.7
20260510021413 71 108 0.9 1.7 0.00 0.00 0.00 33 1014.5
20260510020909 72 175 0.9 0.9 0.00 0.00 0.00 30 1014.9
20260510020404 73 184 1.7 1.7 0.00 0.00 0.00 29 1014.8
20260510015900 73 151 0.9 0.9 0.00 0.00 0.00 29 1014.8
20260510015356 73 142 1.7 1.7 0.00 0.00 0.00 28 1014.7
20260510014851 74 240 1.7 1.7 0.00 0.00 0.00 28 1014.7
20260510014349 75 175 0.9 0.9 0.00 0.00 0.00 28 1014.6
20260510013845 75 132 0.9 0.9 0.00 0.00 0.00 29 1014.8
20260510013341 75 164 0.9 0.9 0.00 0.00 0.00 29 1014.7
20260510012836 76 147 0.9 0.9 0.00 0.00 0.00 30 1014.8
20260510012335 75 202 1.7 1.7 0.00 0.00 0.00 30 1015.0
20260510011830 75 332 1.7 1.7 0.00 0.00 0.00 27 1014.8
20260510011326 75 76 1.7 2.6 0.00 0.00 0.00 30 1014.8
20260510010823 75 55 2.6 2.6 0.00 0.00 0.00 31 1014.9
20260510010320 75 85 0.9 0.9 0.00 0.00 0.00 32 1014.7
20260510005817 77 69 1.7 3.5 0.00 0.00 0.00 31 1015.0
20260510005313 75 173 0.9 0.9 0.00 0.00 0.00 33 1014.8
20260510004811 75 126 0.9 0.9 0.00 0.00 0.00 33 1014.9
20260510004308 75 58 1.7 1.7 0.00 0.00 0.00 32 1014.8
20260510003806 76 140 0.0 0.9 0.00 0.00 0.00 33 1014.9
20260510003302 77 145 0.9 0.9 0.00 0.00 0.00 33 1015.0
20260510002801 77 110 0.9 1.7 0.00 0.00 0.00 33 1014.8
20260510002259 76 131 0.0 0.0 0.00 0.00 0.00 34 1014.9
20260510001755 76 149 0.9 0.9 0.00 0.00 0.00 33 1014.8
20260510001254 76 167 1.7 1.7 0.00 0.00 0.00 33 1014.9
20260510000749 77 99 0.9 1.7 0.00 0.00 0.00 32 1014.8
20260510000248 78 135 0.0 0.0 0.00 0.00 0.00 33 1014.9
20260509235744 77 157 0.0 0.0 0.00 0.00 0.00 32 1014.9
20260509235240 75 141 0.0 0.9 0.00 0.00 0.00 34 1014.9
20260509234736 75 78 2.6 2.6 0.00 0.00 0.00 34 1015.0